Вернуться в каталог

FENGYUN 1C DEB

LostPO
NORAD 36154·DEBRIS·🇨🇳 China

Запущен May 10, 1999 с Taiyuan Satellite Launch Center

Loading…

Ближайшие Пролёты (ближайшие 24 часа)

TLE

УстаревшееSource: Space-Track

Эпоха: Sep 22, 2022, 08:07 UTC

1 36154U 99025DSB 22265.33860985  .00002074  00000-0  14029-2 0  9994
2 36154  97.7237 300.1134 0313366 275.9426  80.6103 13.80001187695406

Отслеживайте FENGYUN 1C DEB в реальном времени с AllMySat

Download on the App Store